Vorticity
8 9 8 7 5 4 3 3 3 3 3 3 3 3 3 3 4 4 5 4 4 4 5 5 5 6 6 7 7 6 5 5
8 9 8 7 6 5 3 3 3 3 3 2 2 3 3 3 3 3 3 4 4 4 4 5 5 5 5 4 4 5 8 7
6 7 7 6 6 5 3 3 3 3 2 2 2 2 3 3 4 3 3 4 5 5 5 5 5 5 4 5 4 5 6 4
2 8 8 7 6 6 4 3 3 3 3 3 2 3 5 4 3 4 4 4 5 6 7 7 7 6 9 4 8 7 4 7
-0 11 9 7 4 8 8 6 5 4 3 3 3 4 4 5 6 6 6 5 6 9 8 7 6 8 4 8 4 7 6 7
12 10 2 3 4 8 1 10 6 5 4 3 5 5 1 6 7 10 11 7 7 11 8 6 5 7 6 5 5 6 8 5
11 4 2 4 4 7 6 5 5 8 4 5 6 0 4 16 10 8 7 8 4 8 7 6 8 6 7 10 8 3 -0 0
7 5 3 4 6 6 6 8 6 7 5 3 7 2 11 7 7 5 9 4 6 4 6 6 5 6 4 3 1 -1 1 1
3 4 2 3 4 5 10 6 7 5 5 3 3 5 12 5 4 9 2 -0 8 8 7 7 8 5 2 2 1 1 3 2
7 4 3 2 3 4 10 9 6 6 6 5 6 14 12 0 8 7 10 9 10 8 7 6 3 2 1 0 -1 1 3 4
-1 10 5 1 3 3 11 9 6 6 5 6 12 8 2 10 7 9 9 9 7 7 4 2 1 1 2 2 1 3 4 7
-1 7 11 2 1 3 11 12 11 9 9 8 10 10 8 4 10 6 8 6 6 5 2 1 1 3 4 2 4 5 8 8
8 -2 8 9 2 4 9 13 12 7 6 5 5 16 12 12 12 9 7 6 4 2 2 1 4 5 3 2 4 11 6 11
-2 -2 6 10 8 4 5 8 4 4 4 5 4 11 12 9 9 6 3 3 3 2 1 2 4 5 2 4 9 8 7 10
-4 -5 6 4 12 3 4 7 2 3 7 5 4 9 10 9 4 7 3 4 -0 1 2 4 4 2 3 6 8 9 8 9
2 8 14 -1 13 6 6 4 -0 1 3 4 4 6 8 8 6 3 3 3 4 3 4 4 3 2 4 8 7 7 8 9
10 11 13 7 10 8 3 6 2 2 2 3 6 5 8 6 5 4 6 5 1 1 5 4 3 2 7 8 9 10 12 9
6 13 10 17 7 4 5 3 5 5 4 3 6 7 7 6 4 4 4 2 1 3 5 4 3 7 8 9 11 11 13 12
4 10 22 17 9 7 5 5 7 4 5 6 4 7 5 9 5 4 2 2 2 4 4 3 4 9 9 10 13 13 12 10
3 12 20 11 12 10 3 6 6 4 4 9 3 6 6 7 6 4 3 3 4 4 4 3 10 11 10 12 14 13 11 7
Height
3172 3173 3174 3175 3176 3177 3177 3178 3179 3180 3180 3181 3182 3183 3184 3185 3186 3187 3187 3187 3187 3187 3187 3186 3186 3186 3186 3185 3184 3184 3183 3182
3171 3172 3174 3174 3174 3175 3176 3176 3177 3178 3179 3180 3181 3182 3183 3183 3184 3185 3186 3186 3186 3186 3185 3185 3185 3184 3183 3183 3183 3183 3182 3181
3169 3171 3172 3173 3173 3173 3174 3175 3177 3177 3178 3178 3179 3180 3181 3183 3183 3183 3183 3184 3184 3184 3184 3183 3182 3182 3182 3181 3181 3181 3181 3179
3167 3169 3170 3171 3171 3172 3173 3174 3176 3176 3177 3178 3178 3179 3180 3181 3181 3181 3181 3180 3180 3181 3181 3180 3180 3180 3180 3180 3179 3178 3177 3177
3166 3167 3168 3169 3169 3171 3172 3173 3173 3174 3175 3176 3176 3176 3175 3176 3177 3177 3178 3178 3178 3178 3177 3177 3177 3176 3175 3175 3175 3175 3174 3173
3163 3164 3166 3167 3166 3169 3170 3170 3171 3171 3172 3174 3174 3175 3175 3175 3174 3175 3176 3176 3175 3175 3174 3174 3173 3173 3172 3173 3173 3173 3173 3172
3160 3161 3163 3164 3164 3166 3167 3168 3168 3169 3169 3170 3171 3172 3172 3173 3171 3171 3171 3172 3172 3171 3171 3171 3171 3171 3171 3170 3170 3171 3170 3169
3158 3158 3160 3161 3161 3162 3162 3164 3166 3166 3166 3167 3169 3168 3169 3168 3169 3169 3169 3169 3169 3169 3168 3168 3168 3168 3169 3169 3168 3167 3166 3164
3155 3156 3157 3158 3158 3159 3159 3160 3162 3163 3163 3163 3166 3166 3166 3166 3167 3167 3167 3167 3165 3165 3166 3166 3166 3166 3166 3165 3164 3163 3160 3157
3151 3152 3154 3155 3155 3156 3157 3157 3157 3159 3159 3161 3162 3162 3163 3164 3164 3164 3163 3162 3162 3163 3163 3163 3163 3163 3162 3161 3159 3157 3155 3152
3146 3148 3150 3151 3152 3152 3152 3153 3153 3154 3156 3157 3158 3158 3158 3159 3159 3159 3158 3159 3160 3159 3160 3160 3159 3158 3157 3156 3155 3152 3149 3147
3138 3143 3144 3146 3147 3148 3148 3148 3149 3151 3152 3153 3154 3154 3155 3155 3156 3156 3155 3156 3156 3157 3156 3155 3154 3154 3152 3150 3149 3146 3140 3138
3129 3134 3139 3140 3142 3143 3144 3144 3145 3147 3148 3149 3149 3149 3150 3150 3151 3151 3151 3151 3152 3152 3152 3151 3148 3148 3146 3144 3142 3140 3134 3130
3121 3124 3131 3134 3137 3138 3140 3140 3142 3143 3144 3145 3145 3145 3145 3145 3146 3146 3146 3148 3148 3148 3148 3147 3143 3139 3138 3134 3132 3136 3129 3123
3113 3116 3122 3127 3129 3132 3133 3135 3136 3138 3140 3140 3141 3141 3140 3141 3141 3143 3142 3143 3144 3143 3143 3141 3138 3134 3130 3126 3122 3119 3113 3116
3110 3108 3113 3119 3121 3125 3126 3130 3131 3133 3135 3135 3136 3136 3137 3137 3138 3139 3138 3138 3138 3137 3136 3133 3132 3129 3126 3122 3115 3109 3104 3097
3105 3102 3104 3110 3114 3117 3120 3123 3124 3126 3128 3129 3130 3131 3132 3132 3133 3133 3132 3133 3132 3130 3129 3128 3124 3123 3119 3114 3110 3106 3100 3093
3096 3094 3095 3103 3106 3108 3112 3116 3117 3119 3121 3123 3125 3125 3126 3126 3127 3127 3127 3126 3126 3125 3123 3120 3118 3115 3110 3106 3101 3095 3091 3086
3086 3087 3087 3092 3097 3100 3105 3108 3110 3111 3114 3117 3117 3118 3120 3120 3121 3121 3121 3121 3120 3118 3116 3113 3110 3106 3103 3099 3093 3088 3083 3079
3075 3080 3081 3083 3086 3092 3097 3099 3101 3103 3107 3109 3110 3111 3113 3114 3113 3114 3114 3114 3113 3111 3108 3106 3102 3099 3095 3089 3084 3081 3077 3074